Location: Chatou
(48.8898°N, 2.1586°E)
Time: 13:07:46
(UTC+00:00)

DELTA 2 DEB (DPAF) - Pass Details

Date: 03 February 2023
Orbit: 624 x 629 km, 98.4° (Epoch: 25 March)

Event Time Altitude Azimuth Distance (km) Brightness Sun altitude
Rises 17:50:08 0° 13° (NNE) 2,929 7.3 -9.9°
Reaches altitude 10° 17:52:20 10° 12° (NNE) 2,019 6.4 -10.2°
Maximum altitude 17:56:43 76° 286° (WNW) 655 4.3 -10.9°
Drops below altitude 10° 18:01:05 10° 202° (SSW) 2,010 7.2 -11.6°
Sets 18:03:16 0° 201° (SSW) 2,915 8.0 -12.0°
